GEFSMA_con_cape1000_006.txt.gz
Probability
74 71 68 23 39 65 81 87 87 90 97 94 58 23 13 0 0 3 3 97 100 100 100 100 100 100 100 100 100 100 100 100 100 100 100 100 100 100 84 52 39 19 6
71 74 77 35 13 26 48 65 71 77 81 84 55 29 19 0 3 19 13 55 100 100 100 100 100 100 100 100 100 100 100 100 100 100 100 100 100 100 100 74 52 35 3
65 81 71 55 26 10 3 13 39 35 19 13 3 0 0 0 32 32 23 26 48 100 100 100 100 100 100 100 100 100 100 100 100 100 100 100 100 100 97 87 71 52 3
90 94 94 68 32 13 6 16 6 6 3 0 0 0 0 0 0 13 19 13 29 39 100 100 100 100 100 100 100 100 100 100 100 100 100 100 100 94 29 26 45 26 0
100 100 100 94 35 19 13 10 0 0 0 0 0 0 0 0 0 0 0 6 13 29 32 61 100 100 100 100 100 100 100 100 100 100 100 100 100 97 6 3 3 0 0
100 97 100 94 71 48 39 10 0 0 0 0 0 0 0 0 0 0 0 0 0 0 6 6 35 90 100 100 100 100 100 100 100 100 100 100 100 100 29 0 0 0 0
100 90 90 90 87 87 77 32 0 0 0 0 0 0 0 0 0 0 0 0 0 0 0 3 3 0 6 90 100 100 100 100 100 100 100 100 100 100 87 3 0 0 0
77 87 68 84 74 71 58 26 6 0 0 0 0 0 0 0 0 0 0 0 0 0 0 0 0 0 0 0 0 3 87 100 100 100 100 100 100 100 100 23 0 0 0
39 68 77 29 23 13 19 10 6 0 0 0 0 0 0 0 0 0 0 0 0 0 0 0 0 0 0 0 0 0 0 42 94 100 100 90 39 87 71 55 0 0 0
6 32 45 32 19 10 0 0 0 0 0 0 0 0 0 0 0 0 0 0 0 0 0 0 0 0 0 0 0 0 0 0 6 87 100 100 26 19 23 45 55 6 0
0 0 3 0 0 0 6 3 0 0 0 0 0 0 0 0 0 0 0 0 0 0 0 0 0 0 0 0 0 0 0 0 0 0 6 16 16 13 6 29 94 94 94
0 0 0 0 0 0 0 3 0 0 0 0 0 0 0 0 0 0 0 0 0 0 0 0 0 0 0 0 0 0 0 0 0 0 0 0 0 0 3 13 58 94 100
0 0 0 0 0 0 0 0 0 0 0 0 0 0 0 0 0 0 0 0 0 0 0 0 0 0 0 0 0 0 0 0 0 0 0 0 0 0 0 0 0 19 45
0 0 0 0 0 0 0 0 0 0 0 0 0 0 0 0 0 0 0 0 0 0 0 0 0 0 0 0 0 0 0 0 0 0 0 0 0 0 0 0 0 0 0
0 0 0 0 0 0 0 0 0 0 0 0 0 0 0 0 0 0 0 0 0 0 0 0 0 0 0 0 0 0 0 0 0 0 0 0 0 0 0 0 0 0 0
0 0 0 0 0 0 0 0 0 0 0 0 0 0 0 0 0 0 0 0 0 0 0 0 0 0 0 0 0 0 0 0 0 0 0 0 0 0 0 0 0 0 0
0 0 0 0 0 0 0 0 0 0 0 0 0 0 0 0 0 0 0 0 0 0 0 0 0 0 0 0 0 0 0 0 0 0 0 0 0 0 0 0 0 0 0
0 0 0 0 0 0 0 0 0 0 0 0 0 0 0 0 0 0 0 0 0 0 0 0 0 0 0 0 0 0 0 0 0 0 0 0 0 0 0 0 0 0 0
0 0 0 0 0 0 0 0 0 0 0 0 0 0 0 0 0 0 0 0 0 0 0 0 0 0 0 0 0 0 0 0 0 0 0 0 0 0 0 0 0 0 0
0 0 0 0 0 0 0 0 0 0 0 0 0 0 0 0 0 0 0 0 0 0 0 0 0 0 0 0 0 0 0 0 0 0 0 0 0 0 0 0 0 0 0
0 0 0 0 0 0 0 0 0 0 0 0 0 0 0 0 0 0 0 0 0 0 0 0 0 0 0 0 0 0 0 0 0 0 0 0 0 0 0 0 0 0 0
0 0 0 0 0 0 0 0 0 0 0 0 0 0 0 0 0 0 0 0 0 0 0 0 0 0 0 0 0 0 0 0 0 0 0 0 0 0 0 0 0 0 0
0 0 0 0 0 0 0 0 0 0 0 0 0 0 0 0 0 0 0 0 0 0 0 0 0 0 0 0 0 0 0 0 0 0 0 0 0 0 0 0 0 0 0
0 0 0 0 0 0 0 0 0 0 0 0 0 0 0 0 0 0 0 0 0 0 0 0 0 0 0 0 0 0 0 0 0 0 0 0 0 0 0 0 0 0 0
0 0 0 0 0 0 0 0 0 0 0 0 0 0 0 0 0 0 0 0 0 0 0 0 0 0 0 0 0 0 0 0 0 0 0 0 0 0 0 0 0 0 0
0 0 0 0 0 0 0 0 0 0 0 0 0 0 0 0 0 0 0 0 0 0 0 0 0 0 0 0 0 0 0 0 0 0 0 0 0 0 0 0 0 0 0

GEFSMA_con_cape1000_012.txt.gz
Probability
84 52 39 55 68 65 71 87 90 100 100 100 100 100 100 100 90 61 65 100 100 100 100 100 100 100 100 100 100 100 100 100 100 100 100 100 100 100 100 65 35 0 0
100 87 48 35 71 77 81 77 74 97 97 97 100 100 100 100 100 97 87 84 100 100 100 100 100 100 100 100 100 100 100 100 100 100 100 100 100 100 100 97 68 19 0
87 90 68 48 71 74 74 84 94 87 81 84 87 90 94 97 100 100 100 94 90 100 100 100 100 100 100 100 100 100 100 100 100 100 100 100 100 100 100 100 94 42 0
61 68 61 74 77 77 74 65 68 65 77 74 71 74 87 84 81 81 84 84 81 65 94 100 100 100 100 100 100 100 100 100 100 100 100 100 100 87 52 45 55 10 0
94 87 87 94 90 90 81 65 55 45 45 55 45 55 39 13 16 10 13 16 19 35 48 48 97 100 100 100 100 100 100 100 100 100 100 100 100 90 52 19 10 6 0
52 55 74 90 97 94 94 84 74 45 13 23 3 3 3 3 3 3 0 0 3 3 3 13 45 58 94 100 100 100 100 100 100 100 100 100 100 100 90 42 13 3 3
6 10 10 26 58 71 87 90 77 61 35 6 0 0 0 0 0 0 0 0 0 0 0 0 10 16 29 39 32 94 100 100 100 100 100 100 100 100 90 68 13 3 3
0 3 3 3 10 23 48 68 65 45 23 0 0 0 0 0 0 0 0 0 0 0 0 0 0 0 0 13 0 0 39 94 100 100 100 77 90 87 81 61 19 0 0
0 0 0 0 0 0 10 16 26 32 16 6 3 0 0 0 0 0 0 0 0 0 0 0 0 0 0 0 0 0 0 6 58 84 97 90 35 3 10 23 19 3 0
0 0 0 0 0 0 0 3 0 19 13 3 0 0 0 0 0 0 0 0 0 0 0 0 0 0 0 0 0 0 0 0 0 6 26 35 26 0 0 3 42 32 3
0 0 0 0 0 0 0 0 0 0 0 3 0 0 0 0 0 0 0 0 0 0 0 0 0 0 0 0 0 0 0 0 0 0 0 0 3 0 3 3 71 87 71
0 0 0 0 0 0 0 0 0 0 0 3 0 0 0 0 0 0 0 0 0 0 0 0 0 0 0 0 0 0 0 0 0 0 0 0 0 0 0 6 16 52 74
0 0 0 0 0 0 0 0 0 0 0 0 0 0 0 0 0 0 0 0 0 0 0 0 0 0 0 0 0 0 0 0 0 0 0 0 0 0 0 0 3 10 10
0 0 0 0 0 0 0 0 0 0 0 0 0 0 0 0 0 0 0 0 0 0 0 0 0 0 0 0 0 0 0 0 0 0 0 0 0 0 0 0 0 0 0
0 0 0 0 0 0 0 0 0 0 0 0 0 0 0 0 0 0 0 0 0 0 0 0 0 0 0 0 0 0 0 0 0 0 0 0 0 0 0 0 0 0 0
0 0 0 0 0 0 0 0 0 0 0 0 0 0 0 0 0 0 0 0 0 0 0 0 0 0 0 0 0 0 0 0 0 0 0 0 0 0 0 0 0 0 0
0 0 0 0 0 0 0 0 0 0 0 0 0 0 0 0 0 0 0 0 0 0 0 0 0 0 0 0 0 0 0 0 0 0 0 0 0 0 0 0 0 0 0
0 0 0 0 0 0 0 0 0 0 0 0 0 0 0 0 0 0 0 0 0 0 0 0 0 0 0 0 0 0 0 0 0 0 0 0 0 0 0 0 0 0 0
0 0 0 0 0 0 0 0 0 0 0 0 0 0 0 0 0 0 0 0 0 0 0 0 0 0 0 0 0 0 0 0 0 0 0 0 0 0 0 0 0 0 0
0 0 0 0 0 0 0 0 0 0 0 0 0 0 0 0 0 0 0 0 0 0 0 0 0 0 0 0 0 0 0 0 0 0 0 0 0 0 0 0 0 0 0
0 0 0 0 0 0 0 0 0 0 0 0 0 0 0 0 0 0 0 0 0 0 0 0 0 0 0 0 0 0 0 0 0 0 0 0 0 0 0 0 0 0 0
0 0 0 0 0 0 0 0 0 0 0 0 0 0 0 0 0 0 0 0 0 0 0 0 0 0 0 0 0 0 0 0 0 0 0 0 0 0 0 0 0 0 0
0 0 0 0 0 0 0 0 0 0 0 0 0 0 0 0 0 0 0 0 0 0 0 0 0 0 0 0 0 0 0 0 0 0 0 0 0 0 0 0 0 0 0
0 0 0 0 0 0 0 0 0 0 0 0 0 0 0 0 0 0 0 0 0 0 0 0 0 0 0 0 0 0 0 0 0 0 0 0 0 0 0 0 0 0 0
0 0 0 0 0 0 0 0 0 0 0 0 0 0 0 0 0 0 0 0 0 0 0 0 0 0 0 0 0 0 0 0 0 0 0 0 0 0 0 0 0 0 0
0 0 0 0 0 0 0 0 0 0 0 0 0 0 0 0 0 0 0 0 0 0 0 0 0 0 0 0 0 0 0 0 0 0 0 0 0 0 0 0 0 0 0

GEFSMA_con_cape1000_018.txt.gz
Probability
100 100 100 100 100 100 100 100 100 100 100 100 100 97 100 100 100 100 100 100 100 100 100 100 100 100 100 100 100 100 100 100 100 100 100 97 97 100 100 100 100 97 74
100 100 100 100 100 100 97 100 100 100 100 100 97 90 97 97 100 100 100 100 100 100 100 100 100 100 100 100 100 100 100 100 100 100 100 100 100 100 100 100 100 97 61
100 100 100 100 100 97 97 97 100 94 97 94 97 100 94 94 90 97 97 97 100 100 100 100 100 100 100 100 100 100 100 100 100 100 100 100 100 100 100 100 100 100 39
100 100 100 100 100 100 100 97 97 97 90 94 94 97 97 97 100 97 90 90 94 94 100 100 100 100 100 100 100 100 100 100 100 100 100 100 100 100 100 100 100 100 39
61 68 90 97 90 90 94 94 90 97 97 94 94 97 97 97 97 100 100 87 90 97 97 97 100 100 100 100 100 100 100 100 100 100 100 100 100 100 100 97 100 97 42
16 23 23 32 48 52 68 81 90 97 97 97 94 94 100 100 100 100 100 97 97 94 97 97 97 100 100 100 97 97 97 100 100 100 100 100 100 100 100 94 74 68 23
6 23 3 16 39 29 45 52 55 55 65 77 74 81 81 77 90 100 100 97 97 90 94 94 97 90 84 81 77 87 87 94 100 100 100 100 100 100 100 94 58 23 19
10 0 6 0 3 23 32 32 55 39 16 48 68 42 26 29 74 77 100 100 97 94 77 71 84 100 84 74 39 68 87 87 94 100 100 97 97 100 100 97 48 10 0
6 3 10 3 10 6 3 13 39 35 23 26 35 55 16 3 13 35 77 94 97 94 77 55 52 71 87 90 90 26 84 77 77 87 100 97 90 81 65 45 35 13 0
0 0 0 0 3 3 3 3 0 19 35 19 29 68 61 39 16 6 32 71 90 94 84 52 35 42 61 77 77 19 16 32 39 42 71 74 74 35 6 6 39 39 6
0 0 0 0 0 3 3 3 13 16 16 19 26 29 52 87 77 23 3 26 52 61 87 77 55 42 58 68 81 13 3 0 3 10 26 29 29 29 10 19 45 90 77
3 0 0 3 6 6 3 6 16 19 32 29 29 26 39 52 42 42 19 32 35 48 68 65 55 61 68 61 19 0 0 0 0 0 0 0 0 3 3 6 19 45 74
0 0 0 3 6 6 10 13 16 13 32 42 42 35 35 48 65 52 45 32 42 71 87 77 45 55 42 48 10 0 0 0 0 0 0 0 0 0 0 0 3 3 6
0 0 3 0 0 3 0 13 13 13 26 35 32 55 61 58 74 74 68 68 71 74 90 65 39 35 23 16 3 0 0 0 0 0 0 0 0 0 0 0 0 0 0
3 0 3 0 0 0 3 16 13 26 29 29 35 48 55 65 81 84 90 90 90 90 90 45 13 6 6 6 0 3 0 0 0 0 0 0 0 0 0 0 0 0 0
35 19 3 0 0 0 0 13 10 13 29 39 52 61 71 55 61 81 90 94 97 94 81 35 0 0 0 0 0 0 0 0 0 0 0 0 0 0 0 0 0 0 0
52 32 10 6 0 0 0 3 6 3 3 6 23 19 45 52 71 77 87 97 97 94 61 0 0 0 0 0 0 0 0 0 0 0 0 0 0 0 0 0 0 0 0
52 32 10 6 0 0 0 0 0 3 3 3 10 13 19 26 42 52 68 77 81 61 23 0 0 0 0 0 0 0 0 0 0 0 0 0 0 0 0 0 0 0 0
55 35 16 6 0 0 0 0 0 3 3 0 0 3 6 19 35 32 32 39 32 16 13 0 0 0 0 0 0 0 0 0 0 0 0 0 0 0 0 0 0 0 0
45 32 13 3 0 0 0 0 0 0 0 0 0 0 0 3 3 10 0 10 10 6 0 0 0 0 0 0 0 0 0 0 0 0 0 0 0 0 0 0 0 0 0
13 29 10 3 0 0 0 0 0 0 0 0 0 0 0 0 0 0 0 0 0 0 0 0 0 0 0 0 0 0 0 0 0 0 0 0 0 0 0 0 0 0 0
6 10 6 6 0 0 0 0 0 0 0 0 0 0 0 0 0 0 0 0 0 0 0 0 0 0 0 0 0 0 0 0 0 0 0 0 0 0 0 0 0 0 0
3 6 0 3 3 0 0 0 0 0 0 0 0 0 0 0 0 0 0 0 0 0 0 0 0 0 0 0 0 0 0 0 0 0 0 0 0 0 0 0 0 0 0
3 3 10 0 3 0 0 0 0 0 0 0 0 0 0 0 0 0 0 0 0 0 0 0 0 0 0 0 0 0 0 0 0 0 0 0 0 0 0 0 0 0 0
0 0 0 0 0 0 0 0 0 0 0 0 0 0 0 0 0 0 0 0 0 0 0 0 0 0 0 0 0 0 0 0 0 0 0 0 0 0 0 0 0 0 0
0 0 0 0 0 0 0 0 0 0 0 0 0 0 0 0 0 0 0 0 0 0 0 0 0 0 0 0 0 0 0 0 0 0 0 0 0 0 0 0 0 0 0

GEFSMA_con_cape1000_024.txt.gz
Probability
100 100 100 100 100 100 100 100 100 100 100 97 97 97 94 97 94 94 94 97 100 100 100 100 100 100 100 100 100 100 100 100 100 100 100 100 100 100 100 100 100 100 97
100 100 100 100 97 100 100 100 100 100 94 94 97 97 97 94 94 94 87 90 94 100 100 100 100 100 100 100 100 100 100 100 100 100 100 100 100 100 100 100 100 97 94
100 100 97 97 97 97 94 97 97 94 90 90 97 97 94 90 90 90 81 84 90 90 100 100 100 100 100 100 100 100 100 100 100 100 100 100 100 100 97 97 97 90 74
97 100 100 97 97 100 97 94 97 97 94 97 97 97 90 87 87 87 87 84 87 87 94 100 100 100 100 100 100 100 100 100 100 100 100 100 100 100 87 84 87 87 48
84 87 94 97 94 97 90 81 90 90 90 90 90 94 90 87 90 84 84 81 77 90 87 90 100 100 100 100 100 100 100 100 100 100 100 100 100 100 81 39 48 55 42
68 84 77 84 68 65 74 77 87 87 94 90 77 74 84 81 84 84 87 81 87 94 84 81 94 100 100 100 100 100 100 100 100 100 100 100 100 100 94 42 19 29 29
29 61 61 71 52 55 68 55 55 48 45 65 58 58 68 61 71 74 81 77 87 90 94 94 94 100 100 100 100 100 100 100 100 100 100 100 100 100 100 58 13 10 10
55 16 81 42 42 71 45 65 81 84 39 32 42 29 19 16 68 32 74 81 81 90 94 97 97 94 97 100 100 100 100 100 100 100 100 100 100 100 97 90 42 6 3
55 48 39 42 58 55 42 77 68 58 35 39 32 32 26 10 16 35 61 68 81 90 94 90 100 100 97 97 97 94 97 94 94 94 100 100 97 90 90 90 74 23 3
61 52 45 32 55 58 58 52 48 61 42 26 29 48 26 26 13 6 6 23 68 84 97 97 94 100 100 97 90 74 87 84 84 90 90 94 94 90 81 77 90 87 23
90 77 58 48 48 61 58 52 58 65 52 39 23 26 29 23 19 3 0 13 42 77 97 100 97 94 94 97 77 52 48 45 52 61 61 68 84 74 81 74 87 87 81
90 84 71 71 55 65 58 55 68 65 68 65 42 32 23 23 23 23 13 16 13 48 84 94 97 100 94 77 35 16 19 6 6 13 19 29 35 42 48 58 65 61 65
90 84 48 65 58 61 65 74 81 74 71 71 65 52 39 29 19 16 16 13 6 39 74 84 94 94 81 61 16 10 3 0 0 0 0 0 10 10 10 16 16 16 10
90 81 61 61 68 68 48 71 65 55 65 71 45 55 45 29 29 32 16 10 6 23 65 81 77 71 71 32 3 0 0 0 0 0 0 0 0 0 0 0 0 0 0
74 77 74 71 77 84 84 84 58 71 68 65 42 42 45 35 48 35 29 16 3 6 35 68 52 48 35 10 0 0 0 0 0 0 0 0 0 0 0 0 0 0 0
71 77 68 84 87 87 87 87 77 65 71 61 58 65 58 35 45 45 55 48 29 19 23 45 26 35 13 0 0 0 0 0 0 0 0 0 0 0 0 0 0 0 0
35 52 68 84 74 84 90 90 77 61 55 48 58 35 35 39 35 35 39 55 42 29 6 10 6 6 0 0 0 0 0 0 0 0 0 0 0 0 0 0 0 0 0
6 6 10 45 58 55 81 84 74 32 39 39 26 23 10 6 19 35 35 45 45 32 6 0 0 0 0 0 0 0 0 0 0 0 0 0 0 0 0 0 0 0 0
3 3 6 6 10 29 35 48 65 48 35 19 13 6 6 0 3 16 32 32 32 6 0 0 0 0 0 0 0 0 0 0 0 0 0 0 0 0 0 0 0 0 0
0 0 0 6 10 10 13 16 23 39 35 26 13 3 0 0 0 6 10 10 13 3 0 0 0 0 0 0 0 0 0 0 0 0 0 0 0 0 0 0 0 0 0
0 0 0 0 0 0 0 3 3 0 23 19 6 3 0 0 0 0 0 13 3 0 0 0 0 0 0 0 0 0 0 0 0 0 0 0 0 0 0 0 0 0 0
0 0 0 0 0 0 0 0 0 0 0 3 0 0 0 0 0 0 0 0 0 0 0 0 0 0 0 0 0 0 0 0 0 0 0 0 0 0 0 0 0 0 0
0 0 0 0 0 0 0 0 0 0 0 6 3 3 0 0 0 0 0 0 0 0 0 0 0 0 0 0 0 0 0 0 0 0 0 0 0 0 0 0 0 0 0
0 0 0 0 0 0 0 0 0 0 0 3 0 0 0 0 0 0 0 0 0 0 0 0 0 0 0 0 0 0 0 0 0 0 0 0 0 0 0 0 0 0 0
3 0 0 0 0 0 0 0 0 0 0 0 0 0 0 0 0 0 0 0 0 0 0 0 0 0 0 0 0 0 0 0 0 0 0 0 0 0 0 0 0 0 0
0 0 0 0 0 0 0 0 0 0 0 0 0 0 0 0 0 0 0 0 0 0 0 0 0 0 0 0 0 0 0 0 0 0 0 0 0 0 0 0 0 0 0

GEFSMA_con_cape1000_030.txt.gz
Probability
100 100 97 84 94 94 94 90 87 90 87 84 90 84 84 74 74 77 65 90 87 87 90 94 94 94 97 100 100 100 100 100 100 100 100 100 100 100 100 100 100 97 100
100 97 94 77 77 74 65 52 58 61 52 61 68 58 58 45 58 65 74 74 97 84 81 87 84 90 97 100 100 100 100 100 100 100 100 100 100 100 100 100 100 100 94
100 81 71 55 48 42 29 16 16 16 13 16 26 23 29 26 32 42 42 52 61 87 84 87 87 90 100 97 100 100 100 100 100 100 100 100 100 100 100 100 100 100 94
87 65 48 26 13 10 10 6 3 3 0 0 0 0 0 10 16 26 23 42 45 55 81 90 90 94 97 97 100 100 100 100 100 100 100 100 100 100 100 100 100 100 90
90 55 23 6 3 3 0 0 0 0 0 0 0 0 0 0 0 13 23 32 35 45 48 65 90 90 94 100 100 100 100 100 100 100 100 100 100 100 94 94 97 94 71
68 35 3 0 0 0 0 0 0 0 0 0 0 0 0 0 0 0 6 13 23 45 45 48 61 81 94 100 100 100 100 100 100 100 100 100 100 100 97 90 74 58 45
32 16 3 0 0 0 0 0 0 0 0 0 0 0 0 0 0 0 0 0 6 29 39 39 45 45 61 90 94 100 100 100 100 97 100 100 100 100 100 90 84 35 32
6 3 0 0 0 0 0 0 0 0 0 0 0 0 0 0 0 0 0 0 0 6 19 29 39 42 52 52 65 84 97 100 97 100 100 100 100 100 100 97 87 35 16
0 0 0 0 0 0 0 0 0 0 0 0 0 0 0 0 0 0 0 0 0 0 0 3 16 32 39 45 61 68 81 77 90 97 100 97 97 94 97 100 94 68 26
0 0 0 0 0 0 0 0 0 0 0 0 0 0 0 0 0 0 0 0 0 0 0 3 3 16 23 45 55 48 55 55 65 81 87 94 90 84 81 84 97 100 74
0 0 0 0 0 0 0 0 0 0 0 0 0 0 0 0 0 0 0 0 0 0 0 0 0 10 19 29 23 39 48 35 32 45 65 77 81 74 87 87 94 97 94
0 0 0 0 0 0 0 0 0 0 0 0 0 0 0 0 0 0 0 0 0 0 0 0 0 3 6 10 16 32 32 26 16 16 26 35 42 55 68 74 77 87 90
0 0 0 0 0 0 0 0 0 0 0 0 0 0 0 0 0 0 0 0 0 0 0 0 0 0 3 0 10 13 23 16 3 6 10 6 13 13 23 29 45 55 58
0 0 0 0 0 0 0 0 0 0 0 0 0 0 0 0 0 0 0 0 0 0 0 0 0 0 0 0 0 0 3 3 0 0 0 0 0 0 0 0 6 6 10
0 0 0 0 0 0 0 0 0 0 0 0 0 0 0 0 0 0 0 0 0 0 0 0 0 0 0 0 0 0 0 0 0 0 0 0 0 0 0 0 0 0 0
0 0 0 0 0 0 0 0 0 0 0 0 0 0 0 0 0 0 0 0 0 0 0 0 0 0 0 0 0 0 0 0 0 0 0 0 0 0 0 0 0 0 0
0 0 0 0 0 0 0 0 0 0 0 0 0 0 0 0 0 0 0 0 0 0 0 0 0 0 0 0 0 0 0 0 0 0 0 0 0 0 0 0 0 0 0
0 0 0 0 0 0 0 0 0 0 0 0 0 0 0 0 0 0 0 0 0 0 0 0 0 0 0 0 0 0 0 0 0 0 0 0 0 0 0 0 0 0 0
0 0 0 0 0 0 0 0 0 0 0 0 0 0 0 0 0 0 0 0 0 0 0 0 0 0 0 0 0 0 0 0 0 0 0 0 0 0 0 0 0 0 0
0 0 0 0 0 0 0 0 0 0 0 0 0 0 0 0 0 0 0 0 0 0 0 0 0 0 0 0 0 0 0 0 0 0 0 0 0 0 0 0 0 0 0
0 0 0 0 0 0 0 0 0 0 0 0 0 0 0 0 0 0 0 0 0 0 0 0 0 0 0 0 0 0 0 0 0 0 0 0 0 0 0 0 0 0 0
0 0 0 0 0 0 0 0 0 0 0 0 0 0 0 0 0 0 0 0 0 0 0 0 0 0 0 0 0 0 0 0 0 0 0 0 0 0 0 0 0 0 0
0 0 0 0 0 0 0 0 0 0 0 0 0 0 0 0 0 0 0 0 0 0 0 0 0 0 0 0 0 0 0 0 0 0 0 0 0 0 0 0 0 0 0
0 0 0 0 0 0 0 0 0 0 0 0 0 0 0 0 0 0 0 0 0 0 0 0 0 0 0 0 0 0 0 0 0 0 0 0 0 0 0 0 0 0 0
0 0 0 0 0 0 0 0 0 0 0 0 0 0 0 0 0 0 0 0 0 0 0 0 0 0 0 0 0 0 0 0 0 0 0 0 0 0 0 0 0 0 0
0 0 0 0 0 0 0 0 0 0 0 0 0 0 0 0 0 0 0 0 0 0 0 0 0 0 0 0 0 0 0 0 0 0 0 0 0 0 0 0 0 0 0

GEFSMA_con_cape1000_036.txt.gz
Probability
94 100 97 94 94 97 94 94 94 87 81 81 77 84 81 77 77 74 77 81 90 100 100 97 100 100 97 97 97 100 97 100 100 100 100 100 100 100 100 100 100 100 100
97 81 81 74 84 81 81 71 71 68 68 65 68 71 71 68 65 71 71 68 81 90 94 94 97 100 97 97 97 97 100 100 100 100 100 100 100 100 100 100 100 100 97
84 77 68 55 52 39 32 26 13 16 19 13 23 35 39 35 45 45 55 55 61 68 87 94 97 97 100 97 94 94 100 100 100 100 100 100 100 100 100 100 100 94 71
84 71 61 52 23 13 3 0 0 6 6 0 0 3 3 6 10 13 13 29 45 55 65 81 94 100 100 97 94 97 100 100 100 100 100 97 100 97 100 97 97 71 39
71 68 52 35 10 0 0 0 0 0 0 0 0 0 0 0 0 3 3 10 19 45 45 42 71 87 90 90 94 94 100 94 100 100 100 100 100 97 90 77 81 55 26
55 52 26 10 3 0 0 0 0 0 0 0 0 0 0 0 0 0 0 0 3 6 26 35 61 68 77 84 90 97 94 94 100 100 100 100 97 90 77 71 58 45 29
39 23 13 3 3 0 0 0 0 0 0 0 0 0 0 0 0 0 0 0 0 0 6 16 45 55 61 68 84 87 94 97 97 97 100 87 81 77 81 65 42 35 26
23 29 3 3 0 0 0 0 0 0 0 0 0 0 0 0 0 0 0 0 0 0 0 6 23 39 39 52 48 61 90 94 100 97 97 87 65 68 61 65 42 23 13
6 6 10 0 0 0 0 0 0 0 0 0 0 0 0 0 0 0 0 0 0 0 0 0 0 10 26 32 45 39 81 94 94 90 90 84 58 39 39 45 52 35 19
0 3 0 0 0 0 0 0 0 0 0 0 0 0 0 0 0 0 0 0 0 0 0 0 0 0 13 32 29 16 45 77 94 94 94 87 71 35 32 35 42 58 42
0 0 0 0 0 0 0 0 0 0 0 0 0 0 0 0 0 0 0 0 0 0 0 0 0 0 0 13 29 39 23 42 55 87 94 87 81 52 35 35 48 55 74
0 0 0 0 0 0 0 0 0 0 0 0 0 0 0 0 0 0 0 0 0 0 0 0 0 0 0 3 6 6 19 23 16 32 58 61 74 55 48 45 45 42 55
0 0 0 0 0 0 0 0 0 0 0 0 0 0 0 0 0 0 0 0 0 0 0 0 0 0 3 3 6 6 13 3 0 3 3 10 29 29 26 32 42 52 55
0 0 0 0 0 0 0 0 0 0 0 0 0 0 0 0 0 0 0 0 0 0 0 0 0 0 0 0 3 0 6 0 0 0 0 0 0 3 6 10 13 16 19
0 0 0 0 0 0 0 0 0 0 0 0 0 0 0 0 0 0 0 0 0 0 0 0 0 0 0 0 0 0 3 0 0 0 0 0 0 0 0 0 0 0 3
0 0 0 0 0 0 0 0 0 0 0 0 0 0 0 0 0 0 0 0 0 0 0 0 0 0 0 0 0 0 0 0 0 0 0 0 0 0 0 0 0 0 0
0 0 0 0 0 0 0 0 0 0 0 0 0 0 0 0 0 0 0 0 0 0 0 0 0 0 0 0 0 0 0 0 0 0 0 0 0 0 0 0 0 0 0
0 0 0 0 0 0 0 0 0 0 0 0 0 0 0 0 0 0 0 0 0 0 0 0 0 0 0 0 0 0 0 0 0 0 0 0 0 0 0 0 0 0 0
0 0 0 0 0 0 0 0 0 0 0 0 0 0 0 0 0 0 0 0 0 0 0 0 0 0 0 0 0 0 0 0 0 0 0 0 0 0 0 0 0 0 0
0 0 0 0 0 0 0 0 0 0 0 0 0 0 0 0 0 0 0 0 0 0 0 0 0 0 0 0 0 0 0 0 0 0 0 0 0 0 0 0 0 0 0
0 0 0 0 0 0 0 0 0 0 0 0 0 0 0 0 0 0 0 0 0 0 0 0 0 0 0 0 0 0 0 0 0 0 0 0 0 0 0 0 0 0 0
0 0 0 0 0 0 0 0 0 0 0 0 0 0 0 0 0 0 0 0 0 0 0 0 0 0 0 0 0 0 0 0 0 0 0 0 0 0 0 0 0 0 0
0 0 0 0 0 0 0 0 0 0 0 0 0 0 0 0 0 0 0 0 0 0 0 0 0 0 0 0 0 0 0 0 0 0 0 0 0 0 0 0 0 0 0
0 0 0 0 0 0 0 0 0 0 0 0 0 0 0 0 0 0 0 0 0 0 0 0 0 0 0 0 0 0 0 0 0 0 0 0 0 0 0 0 0 0 0
0 0 0 0 0 0 0 0 0 0 0 0 0 0 0 0 0 0 0 0 0 0 0 0 0 0 0 0 0 0 0 0 0 0 0 0 0 0 0 0 0 0 0
0 0 0 0 0 0 0 0 0 0 0 0 0 0 0 0 0 0 0 0 0 0 0 0 0 0 0 0 0 0 0 0 0 0 0 0 0 0 0 0 0 0 0

GEFSMA_con_cape1000_042.txt.gz
Probability
97 100 100 100 100 90 100 100 100 97 100 97 97 87 84 81 77 81 87 87 90 94 90 97 100 100 100 90 87 90 87 77 74 94 100 100 100 100 97 97 97 100 100
97 97 100 100 100 100 94 90 84 94 100 97 84 90 87 87 84 90 84 84 90 90 90 94 97 97 97 90 90 90 84 94 81 74 90 97 100 100 100 100 100 100 97
94 90 97 100 97 94 97 100 97 97 94 94 90 90 87 90 81 90 77 77 74 84 84 97 94 94 94 87 90 90 90 87 87 77 84 87 94 97 100 97 94 97 97
81 84 87 90 90 90 90 90 97 97 94 97 94 87 90 94 87 81 74 71 74 58 65 84 90 97 90 94 94 90 87 84 87 84 81 84 84 87 81 77 74 77 61
52 74 74 81 74 81 71 74 71 68 71 74 68 77 74 74 84 52 65 48 52 61 61 74 87 87 84 87 87 87 90 94 94 87 84 87 90 87 65 58 58 48 23
26 39 35 39 45 58 65 68 68 74 65 58 19 26 39 39 45 39 35 32 42 39 39 52 81 74 74 81 90 94 90 90 97 90 94 94 94 90 61 39 39 29 16
16 19 19 35 48 52 55 32 35 23 42 32 23 23 19 6 10 32 32 32 16 19 23 32 48 61 71 68 68 87 90 90 97 94 97 90 90 87 84 58 32 29 23
13 6 23 23 29 45 29 29 26 23 10 13 13 6 6 6 6 0 6 6 3 6 6 6 29 45 52 61 52 68 90 90 94 94 94 87 87 84 77 74 52 29 26
3 6 19 23 42 29 26 29 39 26 6 6 3 6 0 0 0 0 0 3 3 3 0 0 0 13 29 35 65 45 71 87 90 97 94 94 90 81 81 65 58 48 29
6 6 13 19 26 32 52 35 10 23 26 3 6 3 0 3 0 0 0 0 0 0 0 0 0 0 6 23 52 32 48 61 81 84 94 97 94 87 77 65 84 74 48
6 6 6 6 13 23 29 32 26 42 23 10 3 3 0 0 0 0 0 0 0 0 0 3 0 3 3 6 42 26 19 26 55 74 87 97 97 90 87 81 87 90 84
0 0 0 3 3 10 13 26 39 45 45 26 13 6 0 0 0 0 0 0 0 0 0 6 3 3 10 16 6 0 6 6 10 19 52 77 90 97 94 94 94 87 81
0 0 0 0 0 6 6 10 29 35 42 45 42 23 13 0 0 0 0 0 0 0 0 6 0 3 6 13 10 0 3 0 0 0 10 29 52 84 81 90 90 87 84
0 0 0 0 0 0 0 0 6 13 19 39 32 45 32 10 6 0 0 0 0 0 0 3 0 0 0 3 0 0 6 0 0 0 0 0 10 16 29 48 48 42 42
0 0 0 0 0 0 0 0 0 6 10 16 19 42 42 23 13 10 3 0 0 3 0 6 0 3 0 3 0 6 16 0 0 0 0 0 0 0 0 3 10 13 6
0 0 0 0 0 0 0 0 0 0 3 6 13 23 42 42 39 19 10 10 0 3 0 3 3 0 0 0 0 3 3 0 0 0 0 0 0 0 0 0 0 0 0
0 0 0 0 0 0 0 0 0 0 0 3 3 3 6 26 45 26 23 19 10 6 6 3 13 3 6 0 0 0 3 10 0 0 0 0 0 0 0 0 0 0 0
0 0 0 0 0 0 0 0 0 0 0 0 0 3 3 3 23 42 45 19 19 19 13 6 16 3 10 6 3 0 0 0 0 0 0 0 0 0 0 0 0 0 0
0 0 0 0 0 0 0 0 0 0 0 0 0 0 0 0 3 26 39 29 29 6 19 19 19 19 3 3 3 0 0 0 0 0 0 0 0 0 0 0 0 0 0
0 0 0 0 0 0 0 0 0 0 0 0 0 0 0 0 0 3 6 29 29 32 32 16 13 19 6 3 0 0 0 0 0 0 0 0 0 0 0 0 0 0 0
0 0 0 0 0 0 0 0 0 0 0 0 0 0 0 0 0 0 0 10 16 23 26 26 16 13 6 3 0 0 0 0 0 0 0 0 0 0 0 0 0 0 0
0 0 0 0 0 0 0 0 0 0 0 0 0 0 0 0 0 0 0 0 0 3 13 13 19 19 16 6 6 0 0 0 0 0 0 0 0 0 0 0 0 0 0
0 0 0 0 0 0 0 0 0 0 0 0 0 0 0 0 0 0 0 0 0 0 0 6 13 13 26 16 6 0 0 0 0 0 0 0 0 0 0 0 0 0 0
0 0 0 0 0 0 0 0 0 0 0 0 0 0 0 0 0 0 0 0 0 0 0 0 0 13 13 26 16 6 0 0 0 0 0 0 0 0 0 0 0 0 0
0 0 0 0 0 0 0 0 0 0 0 0 0 0 0 0 0 0 0 0 0 0 0 0 0 0 0 0 0 6 0 0 0 0 0 0 0 0 0 0 0 0 0
0 0 0 0 0 0 0 0 0 0 0 0 0 0 0 0 0 0 0 0 0 0 0 0 0 0 0 0 0 0 0 0 0 0 0 0 0 0 0 0 0 0 0

GEFSMA_con_cape1000_048.txt.gz
Probability
97 97 100 100 94 94 94 90 90 90 94 94 90 90 81 68 68 65 81 90 97 94 94 100 100 100 100 97 94 90 94 87 94 100 100 100 100 100 100 100 100 100 100
97 97 97 97 90 87 90 87 84 87 90 94 94 90 90 87 77 81 74 87 90 94 94 97 100 100 100 97 94 94 87 84 84 87 84 90 97 100 100 100 100 100 100
97 97 87 87 84 74 81 71 65 74 74 74 77 87 87 87 81 77 74 77 77 90 94 94 97 97 100 100 97 97 87 87 74 55 58 65 77 87 97 100 100 100 94
74 84 81 71 71 65 58 48 32 35 42 48 48 55 68 77 77 74 68 58 58 48 71 90 97 94 97 100 100 97 87 87 68 55 52 52 52 68 68 87 97 90 74
58 65 71 65 48 48 42 32 23 35 13 13 23 29 52 52 52 42 55 42 39 55 42 55 94 94 94 94 100 100 94 90 71 55 52 55 55 48 39 42 52 39 29
42 48 48 52 39 32 26 29 23 13 10 13 3 3 13 23 39 45 42 32 35 45 42 42 58 68 87 94 100 100 97 90 81 74 74 68 71 65 35 23 16 19 19
26 26 29 32 32 23 13 13 13 6 10 6 6 3 6 10 26 35 32 26 23 35 35 55 55 39 42 71 94 100 100 94 94 81 77 77 74 74 45 23 13 10 10
16 10 10 6 13 16 13 13 10 10 3 3 3 0 0 0 13 3 19 16 19 19 39 45 45 48 45 32 13 74 97 97 97 97 94 81 81 68 52 29 16 10 3
3 10 13 3 6 10 10 6 3 6 3 0 0 0 0 0 0 6 6 6 16 26 23 26 42 39 39 45 45 10 81 90 94 97 97 84 71 55 45 42 35 16 6
3 0 3 0 3 6 6 6 6 6 6 3 6 6 0 6 3 3 6 10 19 13 10 10 16 42 52 55 71 42 32 65 87 94 97 90 77 52 45 48 61 61 32
3 0 3 3 3 3 3 3 3 6 6 6 6 3 3 10 0 0 0 0 0 3 3 13 13 29 32 35 55 42 13 19 52 74 87 90 87 65 61 61 77 77 74
0 0 0 0 0 3 0 0 3 3 6 6 6 10 3 3 0 0 0 0 0 10 10 19 16 23 23 19 23 10 3 3 3 26 42 65 74 74 68 74 77 77 81
0 0 0 0 0 0 0 0 0 0 3 3 3 3 6 3 13 6 3 0 0 10 16 13 19 23 13 19 3 0 0 0 0 0 3 6 39 48 58 74 77 84 94
0 0 0 0 0 0 0 0 0 0 0 6 3 3 3 6 10 6 6 3 0 0 3 10 23 26 19 19 0 0 0 0 0 0 0 0 3 10 19 32 55 68 77
0 0 0 0 0 0 0 0 0 0 0 0 3 6 3 6 6 10 6 6 0 0 0 13 19 39 29 3 0 0 0 0 0 0 0 0 0 0 0 0 6 13 19
0 0 0 0 0 0 0 0 0 0 0 0 0 0 6 3 3 6 13 6 3 0 0 6 19 10 0 0 0 3 6 0 0 0 0 0 0 0 0 0 0 0 0
0 0 0 0 0 0 0 0 0 0 0 0 0 0 0 3 6 6 6 6 10 6 0 10 16 19 19 0 0 6 0 0 0 0 0 0 0 0 0 0 0 0 0
0 0 0 0 0 0 0 0 0 0 0 0 0 0 0 0 0 3 0 6 6 6 3 3 3 6 10 10 6 6 0 0 0 0 0 0 0 0 0 0 0 0 0
0 0 0 0 0 0 0 0 0 0 0 0 0 0 0 0 0 0 0 0 3 0 6 6 3 3 3 3 6 0 0 0 0 0 0 0 0 0 0 0 0 0 0
0 0 0 0 0 0 0 0 0 0 0 0 0 0 0 0 0 0 0 0 0 0 0 0 3 0 3 3 0 0 0 0 0 0 0 0 0 0 0 0 0 0 0
0 0 0 0 0 0 0 0 0 0 0 0 0 0 0 0 0 0 0 0 0 0 0 0 3 0 0 0 0 0 0 0 0 0 0 0 0 0 0 0 0 0 0
0 0 0 0 0 0 0 0 0 0 0 0 0 0 0 0 0 0 0 0 0 0 0 0 0 0 0 0 0 0 0 0 0 0 0 0 0 0 0 0 0 0 0
0 0 0 0 0 0 0 0 0 0 0 0 0 0 0 0 0 0 0 0 0 0 0 0 0 0 0 0 0 0 0 0 0 0 0 0 0 0 0 0 0 0 0
0 0 0 0 0 0 0 0 0 0 0 0 0 0 0 0 0 0 0 0 0 0 0 0 0 0 0 0 0 0 0 0 0 0 0 0 0 0 0 0 0 0 0
0 0 0 0 0 0 0 0 0 0 0 0 0 0 0 0 0 0 0 0 0 0 0 0 0 0 0 0 0 0 0 0 0 0 0 0 0 0 0 0 0 0 0
0 0 0 0 0 0 0 0 0 0 0 0 0 0 0 0 0 0 0 0 0 0 0 0 0 0 0 0 0 0 0 0 0 0 0 0 0 0 0 0 0 0 0